Daggett-Barstow, CA

6:13 AM PDT on June 23, 2018 (GMT -0700)
Barstow-Daggett

Weather History for KDAG - October, 2017

Change the Weather History Date:

Monday, October 9, 2017

  Actual Average Record
Temperature  
Mean Temperature 63 °F 71 °F  
Max Temperature 75 °F 85 °F 103 °F (1980)
Min Temperature 50 °F 57 °F 38 °F (1949)
Degree Days  
Heating Degree Days 2    
Cooling Degree Days 0    
Growing Degree Days 13 (Base 50)    
Moisture  
Dew Point 13 °F    
Average Humidity 13    
Maximum Humidity 18    
Minimum Humidity 8    
Precipitation  
Precipitation 0.00 in 0.00 in 0.20 in (1960)
Month to date precipitation 0.00 0.05  
Year to date precipitation 2.16 3.02  
Sea Level Pressure  
Sea Level Pressure 30.01 in    
Wind  
Wind Speed 8 mph (ENE)    
Max Wind Speed 30 mph    
Max Gust Speed 37 mph    
Visibility 10 miles    
Events      
T = Trace of Precipitation, MM = Missing Value Source: NWS Daily Summary

Daily Weather History Graph

Daily Weather History Graph

Search for Another Location

Airport or City:

Astronomy

Oct. 09, 2017 Rise Set
Actual Time 6:48 AM PDT 6:19 PM PDT
Civil Twilight 6:23 AM PDT 6:44 PM PDT
Nautical Twilight 5:53 AM PDT 7:14 PM PDT
Astronomical Twilight 5:24 AM PDT 7:43 PM PDT
Moon 9:41 PM PDT (10/9) 10:56 AM PDT (10/9)
Length of Visible Light 12h 21m
Length of Day
11h 31m
Waning Gibbous, 80% of the Moon is Illuminated
Oct 9
Waning Gibbous
Oct 12
Last Quarter
Oct 19
New
Oct 27
First Quarter
Nov 3
Full

Hourly Weather History & Observations

Time (PDT) Temp. Dew Point Humidity Pressure Visibility Wind Dir Wind Speed Gust Speed Precip Events Conditions
12:50 AM 69.1 °F 18.0 °F 14% 29.83 in 9.0 mi NNE 17.3 mph 26.5 mph N/A   Overcast
12:57 AM 68.0 °F 18.0 °F 15% 29.91 in 10.0 mi North 17.3 mph - N/A   Overcast
1:50 AM 66.9 °F 16.0 °F 14% 29.88 in 9.0 mi NNE 24.2 mph 36.8 mph N/A   Overcast
2:50 AM 64.0 °F 16.0 °F 16% 29.91 in 10.0 mi NNE 15.0 mph 26.5 mph N/A   Mostly Cloudy
3:50 AM 63.0 °F 14.0 °F 15% 29.94 in 10.0 mi NE 19.6 mph 24.2 mph N/A   Clear
4:50 AM 62.1 °F 12.9 °F 15% 29.97 in 10.0 mi NE 19.6 mph 27.6 mph N/A   Clear
5:50 AM 59.0 °F 12.9 °F 16% 30.00 in 10.0 mi ENE 8.1 mph - N/A   Clear
6:50 AM 55.9 °F 12.9 °F 18% 30.05 in 10.0 mi ESE 5.8 mph - N/A   Clear
7:50 AM 60.1 °F 14.0 °F 16% 30.07 in 10.0 mi Variable 3.5 mph - N/A   Clear
8:50 AM 64.0 °F 17.1 °F 16% 30.09 in 10.0 mi ENE 12.7 mph 20.7 mph N/A   Clear
9:50 AM 66.9 °F 16.0 °F 14% 30.10 in 10.0 mi ENE 12.7 mph - N/A   Clear
10:50 AM 68.0 °F 16.0 °F 14% 30.10 in 10.0 mi ENE 10.4 mph - N/A   Clear
11:50 AM 68.0 °F 15.1 °F 13% 30.09 in 10.0 mi East 8.1 mph - N/A   Clear
12:50 PM 71.1 °F 14.0 °F 11% 30.06 in 10.0 mi Variable 6.9 mph 19.6 mph N/A   Clear
1:50 PM 73.0 °F 12.0 °F 10% 30.03 in 10.0 mi Variable 4.6 mph - N/A   Clear
2:50 PM 73.9 °F 10.9 °F 9% 30.01 in 10.0 mi NE 10.4 mph - N/A   Clear
3:50 PM 73.9 °F 9.0 °F 8% 30.00 in 10.0 mi East 5.8 mph - N/A   Clear
5:50 PM 73.0 °F 10.9 °F 9% 29.99 in 10.0 mi NE 3.5 mph - N/A   Clear
6:50 PM 70.0 °F 10.9 °F 10% 30.00 in 10.0 mi Calm Calm - N/A   Clear
7:50 PM 64.0 °F 8.1 °F 11% 30.02 in 10.0 mi South 4.6 mph - N/A   Clear
8:50 PM 57.9 °F 10.0 °F 15% 30.04 in 10.0 mi WNW 5.8 mph - N/A   Clear
9:50 PM 57.9 °F 8.1 °F 14% 30.04 in 10.0 mi Calm Calm - N/A   Clear
10:50 PM 53.1 °F 7.0 °F 16% 30.05 in 10.0 mi SSE 3.5 mph - N/A   Clear
11:50 PM 53.1 °F 6.1 °F 15% 30.04 in 10.0 mi SSW 5.8 mph - N/A   Clear